Weather History for CWWE - September, 2012

Change the Weather History Date:

Sunday, September 30, 2012

  Actual Average Record
Temperature  
Mean Temperature 60 °F -  
Max Temperature 63 °F - - ()
Min Temperature 57 °F - - ()
Degree Days  
Heating Degree Days 4    
Growing Degree Days 10 (Base 50)    
Moisture  
Dew Point 60 °F    
Average Humidity 99    
Maximum Humidity 100    
Minimum Humidity 96    
Precipitation  
Precipitation 0.16 in - - ()
Sea Level Pressure  
Sea Level Pressure 29.87 in    
Wind  
Wind Speed 7 mph ()    
Max Wind Speed 28 mph    
Max Gust Speed 36 mph    
T = Trace of Precipitation, MM = Missing Value Source: Averaged Metar Reports

Daily Weather History Graph

Daily Weather History Graph

Search for Another Location

Airport or City:

Trip Planner

Search our weather history database for the weather conditions in past years. The results will help you decide how hot, cold, wet, or windy it might be!

Date:

Astronomy

Sep. 30, 2012 Rise Set
Actual Time 7:15 AM ADT 7:00 PM ADT
Civil Twilight 6:46 AM ADT 7:29 PM ADT
Nautical Twilight 6:13 AM ADT 8:02 PM ADT
Astronomical Twilight 5:39 AM ADT 8:36 PM ADT
Moon 6:58 PM ADT (9/30) 7:45 AM ADT (9/30)
Length of Visible Light 12h 42m
Length of Day
11h 44m
Full, 100% of the Moon is Illuminated
Sep 30
Full
Oct 8
Last Quarter
Oct 15
New
Oct 22
First Quarter
Oct 29
Full

Hourly Weather History & Observations

Time (ADT) Temp. Dew Point Humidity Pressure Visibility Wind Dir Wind Speed Gust Speed Precip Events Conditions
12:00 AM 61 °F 60 °F 97% 29.98 in - East 1.2 mph - -  
12:00 AM 60.8 °F 60.4 °F 99% 29.98 in - East 1.2 mph - N/A   Unknown
1:00 AM 59.5 °F 59.2 °F 99% 29.96 in - East 1.2 mph - N/A   Unknown
2:00 AM 60.4 °F 60.1 °F 99% 29.98 in - East 2.3 mph - N/A   Unknown
3:00 AM 60 °F 59 °F 97% 29.97 in - ENE 4.6 mph - -  
3:00 AM 59.5 °F 59.4 °F 99% 29.97 in - ENE 4.6 mph - N/A   Unknown
4:00 AM 59.0 °F 58.8 °F 99% 29.96 in - NNE 4.6 mph - N/A   Unknown
5:00 AM 59.2 °F 59.0 °F 99% 29.97 in - NNE 4.6 mph - N/A   Unknown
6:00 AM 59 °F 59 °F 98% 29.97 in - NNE 5.8 mph - -  
6:00 AM 58.8 °F 58.6 °F 99% 29.97 in - NNE 5.8 mph - N/A   Unknown
8:00 AM 59.9 °F 59.9 °F 100% 29.95 in - NE 4.6 mph - N/A   Unknown
9:00 AM 61 °F 61 °F 100% 29.96 in - ENE 3.5 mph - -  
9:00 AM 61.0 °F 61.0 °F 100% 29.96 in - ENE 3.5 mph - N/A   Unknown
10:00 AM 61.0 °F 61.0 °F 100% 29.94 in - NE 3.5 mph - N/A   Unknown
11:00 AM 60.4 °F 60.4 °F 100% 29.93 in - NE 4.6 mph - N/A   Unknown
12:00 PM 61 °F 61 °F 100% 29.89 in - East 11.5 mph - -  
12:00 PM 61.0 °F 61.0 °F 100% 29.89 in - East 11.5 mph - N/A   Unknown
1:00 PM 61.3 °F 61.3 °F 100% 29.87 in - ESE 17.3 mph - 0.14 in   Unknown
2:00 PM 61.3 °F 61.3 °F 100% 29.82 in - ESE 11.5 mph - 0.02 in   Unknown
3:00 PM 62 °F 62 °F 100% 29.79 in - East 16.1 mph - -  
3:00 PM 62.2 °F 62.2 °F 100% 29.79 in - East 16.1 mph - N/A   Unknown
4:00 PM 62.2 °F 62.2 °F 100% 29.75 in - ESE 16.1 mph - 0.03 in   Unknown
5:00 PM 63.5 °F 63.5 °F 100% 29.72 in - SE 27.6 mph 35.7 mph 0.11 in   Unknown
6:00 PM 63 °F 62 °F 96% 29.72 in - SE 21.9 mph - -  
6:00 PM 62.6 °F 62.2 °F 99% 29.72 in - SSE 21.9 mph - N/A   Unknown
7:00 PM 62.8 °F 62.6 °F 99% 29.71 in - SSE 20.7 mph - N/A   Unknown
8:00 PM 61.5 °F 61.2 °F 99% 29.72 in - South 19.6 mph - N/A   Unknown
9:00 PM 59 °F 58 °F 97% 29.75 in - SSW 15.0 mph - -  
9:00 PM 58.6 °F 58.5 °F 99% 29.75 in - SSW 15.0 mph - N/A   Unknown
10:00 PM 58.3 °F 58.3 °F 100% 29.75 in - SSW 11.5 mph - N/A   Unknown
11:00 PM 57.7 °F 57.7 °F 100% 29.77 in - SSW 11.5 mph - N/A   Unknown